Location: Newark
(36.0000°N, 138.0000°E)
Time: 21:41:37
(UTC+00:00)

Tiangong 2 - Pass Details

Date: 29 March 2019
Orbit: 378 x 390 km, 42.8° (Epoch: 25 April)

Event Time Altitude Azimuth Distance (km) Brightness Sun altitude
Rises 09:52:54 0° 207° (SSW) 2,225 5.1 -10.1°
Reaches altitude 10° 09:55:24 10° 186° (S) 1,376 3.8 -10.6°
Maximum altitude 09:57:33 17° 142° (SE) 1,025 2.8 -11.0°
Enters shadow 09:58:14 16° 125° (SE) 1,065 2.7 -11.1°
